Hourly Data Report for October 28, 2015

All times are specified in Local Standard Time (LST). Add 1 hour to adjust for Daylight Saving Time where and when it is observed.

ARVIAT A
NUNAVUT

61°05'38.000" N
94°04'18.000" W
10.40 m
2300427
71174
YEK

Download Data

Hourly Data (October 2015)
Hourly Data Report for October 28, 2015
Temp Definition
°C
Dew Point Temp Definition
°C
Rel Hum Definition
%
Wind Dir Definition
10's deg

Wind Spd Definition
km/h
Visibility Definition
km
Stn Press Definition
kPa
Hmdx Definition


Wind Chill Definition


Weather Definition


TIME
00:00 Legend Double Dagger -2.4 -4.0 89 9 17 16.1 101.28   -8 Snow
01:00 Legend Double Dagger -2.2 -2.8 96 9 18 6.4 101.25   -8 Snow
02:00 Legend Double Dagger -2.0 -2.0 100 9 22 3.2 101.19   -8 Snow
03:00 Legend Double Dagger -1.5 -1.5 100 9 26 6.4 101.14   -8 Snow
04:00 Legend Double Dagger -1.1 -1.1 100 9 26 2.4 101.10   -7 Fog
05:00 Legend Double Dagger -0.9 -0.9 100 8 26 2.8 101.07   -7 Snow
06:00 Legend Double Dagger -0.9 -0.9 100 8 28 2.4 101.03   -7 Snow
07:00 Legend Double Dagger -1.0 -1.0 100 8 32 2.8 100.99   -8 Snow
08:00 Legend Double Dagger -1.1 -1.1 100 7 30 2.4 100.97   -8 Snow
09:00 Legend Double Dagger -1.2 -1.2 100 6 28 3.2 100.96   -8 Snow
10:00 Legend Double Dagger -1.4 -1.4 100 6 30 3.6 100.95   -8 Snow
11:00 Legend Double Dagger -1.5 -1.5 100 5 30 2.8 100.93   -8 Snow
12:00 Legend Double Dagger -1.6 -1.7 99 5 28 2.8 100.89   -8 Snow
13:00 Legend Double Dagger -1.4 -1.7 98 4 26 4.8 100.91   -8 Snow
14:00 Legend Double Dagger -1.8 -1.9 99 3 30 2.8 100.91   -9 Snow
15:00 Legend Double Dagger -2.6 -3.0 97 1 30 4.0 100.94   -10 Snow
16:00 Legend Double Dagger -5.5 -6.0 96 1 37 3.6 100.99   -14 Snow
17:00 Legend Double Dagger -6.9 -7.4 96 1 32 4.8 101.06   -16 Snow
18:00 Legend Double Dagger -7.3 -7.8 96 1 32 11.3 101.09   -16 Snow
19:00 Legend Double Dagger -7.7 -8.2 96 36 28 6.4 101.10   -16 Snow
20:00 Legend Double Dagger -8.6 -9.3 95 35 30 16.1 101.09   -18 Snow
21:00 Legend Double Dagger -10.4 -11.2 94 34 26 16.1 101.12   -19 Snow
22:00 Legend Double Dagger -10.4 -11.0 95 35 32 16.1 101.10   -20 LegendNANA
23:00 Legend Double Dagger -9.5 -10.7 91 34 32 16.1 101.10   -19 LegendNANA

Notes on Data Quality.

Legend

  • E = Estimated
  • M = Missing
  • NA = Not Available
  • ‡ = Partner data that is not subject to review by the National Climate Archives
Date modified: